, AK

(GMT )
Portage Glacier

Weather History for PATO - January, 2014

Change the Weather History Date:

Wednesday, January 8, 2014

  Actual Average Record
Temperature  
Mean Temperature 34 °F -  
Max Temperature 39 °F - - ()
Min Temperature 30 °F - - ()
Degree Days  
Heating Degree Days 30    
Moisture  
Dew Point 33 °F    
Average Humidity 93    
Maximum Humidity 100    
Minimum Humidity 79    
Precipitation  
Precipitation 0.49 in - - ()
Sea Level Pressure  
Sea Level Pressure 29.29 in    
Wind  
Wind Speed 12 mph (ESE)    
Max Wind Speed 25 mph    
Max Gust Speed 43 mph    
Visibility 6 miles    
Events Rain , Snow    
Averages and records for this station are not official NWS values.
T = Trace of Precipitation, MM = Missing Value Source: NWS Daily Summary

Daily Weather History Graph

Daily Weather History Graph

Search for Another Location

Airport or City:

Astronomy

Jan. 08, 2014 Rise Set
Actual Time 9:58 AM AKST 4:06 PM AKST
Civil Twilight 9:01 AM AKST 5:03 PM AKST
Nautical Twilight 8:04 AM AKST 6:00 PM AKST
Astronomical Twilight 7:12 AM AKST 6:52 PM AKST
Moon 12:00 PM AKST (1/8) 2:12 AM AKST (1/8)
Length of Visible Light 8h 01m
Length of Day
6h 07m
First Quarter, 57% of the Moon is Illuminated
Jan 8
First Quarter
Jan 15
Full
Jan 23
Last Quarter
Jan 30
New
Feb 6
First Quarter

Hourly Weather History & Observations

Time (AKST) Temp. Windchill Dew Point Humidity Pressure Visibility Wind Dir Wind Speed Gust Speed Precip Events Conditions
12:21 AM 39.0 °F 30.3 °F 34.0 °F 82% 29.44 in 10.0 mi East 16.1 mph 36.8 mph 0.00 in   Overcast
12:28 AM 39.0 °F 29.3 °F 34.0 °F 82% 29.44 in 10.0 mi East 19.6 mph 36.8 mph 0.00 in   Overcast
12:53 AM 37.9 °F 27.9 °F 34.0 °F 86% 29.43 in 7.0 mi ESE 19.6 mph 29.9 mph 0.00 in Rain Light Rain
1:20 AM 39.0 °F 30.6 °F 33.1 °F 79% 29.41 in 10.0 mi SE 15.0 mph 33.4 mph 0.00 in Rain Light Rain
1:30 AM 39.0 °F 30.6 °F 33.1 °F 79% 29.41 in 8.0 mi East 15.0 mph 36.8 mph 0.00 in Rain Light Rain
1:42 AM 39.0 °F 29.6 °F 33.1 °F 79% 29.41 in 7.0 mi East 18.4 mph 42.6 mph 0.00 in Rain Light Rain
1:49 AM 39.2 °F 31.2 °F 33.8 °F 81% 29.41 in 8.0 mi ESE 13.8 mph 27.6 mph 0.01 in Rain Light Rain
1:53 AM 39.0 °F 30.3 °F 33.1 °F 79% 29.41 in 8.0 mi East 16.1 mph 27.6 mph 0.01 in Rain Light Rain
2:53 AM 37.9 °F - 34.0 °F 86% 29.39 in 4.0 mi North - - 0.04 in Rain Light Rain
3:53 AM 39.0 °F 29.3 °F 34.0 °F 82% 29.39 in 8.0 mi ESE 19.6 mph 35.7 mph 0.04 in Rain Light Rain
4:10 AM 37.9 °F 30.5 °F 34.0 °F 86% 29.37 in 9.0 mi SE 11.5 mph 25.3 mph 0.00 in Rain Light Rain
4:42 AM 37.9 °F 26.6 °F 33.1 °F 83% 29.36 in 7.0 mi ESE 25.3 mph 35.7 mph 0.01 in Rain Light Rain
4:53 AM 39.0 °F 29.9 °F 33.1 °F 79% 29.36 in 6.0 mi ENE 17.3 mph 28.8 mph 0.01 in Rain Light Rain
5:53 AM 37.9 °F 30.0 °F 33.1 °F 83% 29.35 in 4.0 mi SE 12.7 mph 20.7 mph 0.07 in Rain Light Rain
6:53 AM 37.0 °F 28.1 °F 33.1 °F 86% 29.34 in 5.0 mi SE 15.0 mph 25.3 mph 0.06 in Rain Rain
7:53 AM 37.0 °F 30.4 °F 33.1 °F 86% 29.32 in 6.0 mi SE 9.2 mph 24.2 mph 0.04 in Rain Light Rain
8:53 AM 36.0 °F 28.5 °F 33.1 °F 89% 29.32 in 7.0 mi SE 10.4 mph 18.4 mph 0.04 in Rain Light Rain
9:53 AM 35.1 °F 27.4 °F 34.0 °F 96% 29.32 in 7.0 mi SE 10.4 mph 20.7 mph 0.06 in Rain Light Rain
10:53 AM 36.0 °F 29.6 °F 34.0 °F 93% 29.32 in 6.0 mi SSE 8.1 mph 21.9 mph 0.05 in Rain Light Rain
11:53 AM 35.1 °F 28.6 °F 34.0 °F 96% 29.32 in 8.0 mi SSE 8.1 mph 17.3 mph 0.03 in Rain Light Rain
12:02 PM 35.1 °F 29.3 °F 34.0 °F 96% 29.31 in 8.0 mi Variable 6.9 mph - 0.00 in Rain Light Rain
12:53 PM 35.1 °F 27.9 °F 34.0 °F 96% 29.30 in 6.0 mi SSE 9.2 mph - 0.00 in Rain Light Rain
1:53 PM 35.1 °F 31.0 °F 34.0 °F 96% 29.28 in 5.0 mi Variable 4.6 mph - 0.02 in Rain Light Rain
2:53 PM 35.1 °F 29.3 °F 34.0 °F 96% 29.27 in 10.0 mi East 6.9 mph - 0.01 in   Overcast
3:53 PM 35.1 °F 27.9 °F 33.1 °F 92% 29.25 in 10.0 mi East 9.2 mph - N/A   Overcast
4:53 PM 34.0 °F 29.8 °F 34.0 °F 100% 29.24 in 10.0 mi ENE 4.6 mph - 0.00 in Rain Light Rain
5:38 PM 33.1 °F 27.7 °F 33.1 °F 100% 29.23 in 4.0 mi East 5.8 mph - 0.01 in Snow Light Snow
5:53 PM 33.1 °F 27.7 °F 33.1 °F 100% 29.22 in 9.0 mi East 5.8 mph - 0.01 in Snow Light Snow
6:53 PM 33.1 °F - 33.1 °F 100% 29.21 in 10.0 mi Calm Calm - 0.00 in Rain Light Rain
7:53 PM 32.0 °F - 32.0 °F 100% 29.20 in 10.0 mi Calm Calm - 0.00 in   Overcast
8:49 PM 32.0 °F 28.7 °F 32.0 °F 100% 29.20 in 5.0 mi WNW 3.5 mph - N/A   Overcast
8:53 PM 32.0 °F 28.7 °F 32.0 °F 100% 29.20 in 2.5 mi WNW 3.5 mph - N/A   Overcast
9:01 PM 32.0 °F 28.7 °F 32.0 °F 100% 29.20 in 1.2 mi West 3.5 mph - N/A   Overcast
9:11 PM 32.0 °F - 32.0 °F 100% 29.20 in 0.8 mi Calm Calm - N/A   Overcast
9:22 PM 32.0 °F - 32.0 °F 100% 29.19 in 1.2 mi Calm Calm - N/A   Overcast
9:31 PM 32.0 °F - 32.0 °F 100% 29.19 in 2.5 mi Calm Calm - N/A   Overcast
9:42 PM 32.0 °F - 32.0 °F 100% 29.19 in 1.2 mi Calm Calm - N/A   Overcast
9:53 PM 32.0 °F 28.7 °F 32.0 °F 100% 29.19 in 1.0 mi WNW 3.5 mph - N/A   Overcast
10:04 PM 32.0 °F - 32.0 °F 100% 29.19 in 1.0 mi Calm Calm - N/A   Overcast
10:10 PM 32.0 °F - 32.0 °F 100% 29.19 in 2.0 mi Calm Calm - N/A   Overcast
10:18 PM 32.0 °F - 32.0 °F 100% 29.19 in 5.0 mi Calm Calm - N/A   Overcast
10:28 PM 32.0 °F 25.6 °F 32.0 °F 100% 29.20 in 6.0 mi West 6.9 mph - 0.00 in Snow Light Snow
10:35 PM 32.0 °F 25.6 °F 32.0 °F 100% 29.19 in 4.0 mi West 6.9 mph - 0.00 in Snow Light Snow
10:53 PM 32.0 °F 24.2 °F 32.0 °F 100% 29.20 in 7.0 mi West 9.2 mph 17.3 mph 0.00 in   Overcast
11:12 PM 30.9 °F 24.3 °F 30.9 °F 100% 29.20 in 10.0 mi West 6.9 mph - N/A   Overcast
11:53 PM 32.0 °F 24.8 °F 30.9 °F 96% 29.20 in 4.0 mi WNW 8.1 mph - 0.00 in Snow Light Snow